Location: Shannon
(40.5500°S, 175.4167°E)
Time: 20:46:52
(UTC+00:00)

MOZ.5/SAFIR/RUBIN 5/SL-8 - Pass Details

Date: 17 November 2025
Orbit: 667 x 692 km, 98.3° (Epoch: 06 December)

Event Time Altitude Azimuth Distance (km) Brightness Sun altitude
Rises 15:59:04 0° 175° (S) 3,051 7.7 -9.0°
Reaches altitude 10° 16:01:24 10° 182° (S) 2,131 6.8 -8.7°
Maximum altitude 16:05:45 41° 251° (WSW) 986 4.3 -8.0°
Drops below altitude 10° 16:10:05 10° 320° (NW) 2,113 5.7 -7.3°
Enters shadow 16:10:40 - 322° (NW) 2,339 5.9 -7.2°
